GW7130 Weather Reports


time (UTC)temp
C
wind
direction
speed
KPH
gust
KPH
rain 1hr
cm
rain 24hr
cm
rain mn
cm
humidity
%
barometer
mb
20260505223044 14 232 1.6 12.9 0.00 0.00 0.00 85 1015.5
20260505221541 14 252 3.2 11.3 0.00 0.00 0.00 84 1015.6
20260505220044 15 196 4.8 11.3 0.00 0.00 0.00 82 1015.6
20260505214539 15 273 3.2 8.0 0.00 0.00 0.00 83 1015.5
20260505213044 14 214 1.6 11.3 0.00 0.00 0.00 84 1015.6
20260505211543 14 314 3.2 11.3 0.00 0.00 0.00 84 1015.6
20260505210044 14 180 3.2 11.3 0.00 0.00 0.00 84 1015.5
20260505204548 15 238 3.2 11.3 0.00 0.00 0.00 84 1015.6
20260505203052 14 251 1.6 9.7 0.00 0.00 0.00 85 1015.6
20260505201536 14 232 1.6 9.7 0.00 0.00 0.00 86 1015.7
20260505200047 13 242 1.6 12.9 0.00 0.00 0.00 86 1015.7
20260505194603 13 229 3.2 11.3 0.00 0.00 0.00 86 1015.6
20260505193043 13 311 1.6 8.0 0.00 0.00 0.00 87 1015.5
20260505191553 13 235 1.6 9.7 0.00 0.00 0.00 87 1015.4
20260505190042 13 253 1.6 11.3 0.00 0.00 0.00 87 1015.3
20260505184548 13 0 0.0 9.7 0.00 0.00 0.00 87 1015.3
20260505183043 13 0 0.0 4.8 0.00 0.00 0.00 87 1015.2
20260505181542 13 256 3.2 8.0 0.00 0.00 0.00 86 1015.2
20260505180047 13 0 0.0 6.4 0.00 0.00 0.00 84 1015.0
20260505174549 13 204 0.0 3.2 0.00 0.00 0.00 84 1014.9
20260505173059 13 229 0.0 4.8 0.00 0.00 0.00 85 1014.8
20260505171556 13 0 0.0 3.2 0.00 0.00 0.00 85 1014.8
20260505170044 13 0 0.0 6.4 0.00 0.00 0.00 85 1014.6
20260505164544 13 0 0.0 4.8 0.00 0.00 0.00 84 1014.7
20260505163049 13 0 0.0 0.0 0.00 0.00 0.00 83 1014.6
20260505161538 13 0 0.0 0.0 0.00 0.00 0.00 82 1014.6
20260505153043 12 0 0.0 0.0 0.00 0.00 0.00 85 1014.7
20260505151541 12 0 0.0 0.0 0.00 0.00 0.00 85 1014.7
20260505124551 12 0 0.0 0.0 0.00 0.00 0.00 90 1014.0
20260505123053 12 0 0.0 0.0 0.00 0.00 0.00 89 1013.9
20260505121612 12 0 0.0 0.0 0.00 0.00 0.00 89 1013.9
20260505120046 12 0 0.0 0.0 0.00 0.00 0.00 89 1013.9
20260505114540 12 0 0.0 0.0 0.00 0.00 0.00 89 1013.8
20260505113048 12 0 0.0 0.0 0.00 0.00 0.00 89 1013.8
20260505111548 12 0 0.0 0.0 0.00 0.00 0.00 88 1013.6
20260505101540 12 0 0.0 0.0 0.00 0.00 0.00 87 1013.4
20260505100046 12 0 0.0 0.0 0.00 0.00 0.00 86 1013.4
20260505094545 12 0 0.0 3.2 0.00 0.00 0.00 87 1013.5
20260505093042 12 151 0.0 4.8 0.00 0.00 0.00 87 1013.4
20260505091552 12 151 0.0 1.6 0.00 0.00 0.00 87 1013.5
20260505090053 12 0 0.0 3.2 0.00 0.00 0.00 87 1013.6
20260505084547 12 0 1.6 4.8 0.00 0.00 0.00 87 1013.6
20260505083050 12 0 0.0 3.2 0.00 0.00 0.00 87 1013.7
20260505081547 12 0 0.0 3.2 0.00 0.00 0.00 87 1013.7
20260505080050 12 0 0.0 3.2 0.00 0.00 0.00 87 1013.8
20260505074542 12 0 0.0 4.8 0.00 0.00 0.00 87 1013.9
20260505073056 12 151 1.6 3.2 0.00 0.00 0.00 88 1014.0
20260505071546 12 0 0.0 1.6 0.00 0.00 0.00 88 1014.0
20260505070043 12 151 0.0 4.8 0.00 0.00 0.00 88 1014.0
20260505064543 12 151 0.0 4.8 0.00 0.00 0.00 88 1014.1
20260505063048 12 161 0.0 4.8 0.00 0.00 0.00 89 1014.1
20260505061540 12 163 0.0 4.8 0.00 0.00 0.00 89 1013.9
20260505060049 12 0 0.0 4.8 0.00 0.00 0.00 89 1014.0
20260505054615 12 0 0.0 6.4 0.00 0.00 0.00 89 1014.1
20260505053048 12 155 1.6 4.8 0.00 0.00 0.00 89 1014.0
20260505051545 12 160 0.0 3.2 0.00 0.00 0.00 90 1014.1
20260505041553 12 159 1.6 8.0 0.00 0.00 0.00 91 1013.7
20260505040045 12 217 1.6 6.4 0.00 0.00 0.00 91 1013.5
20260505034541 12 148 1.6 8.0 0.00 0.00 0.00 91 1013.3
20260505033044 12 159 0.0 8.0 0.00 0.00 0.00 90 1013.4
20260505031541 12 0 1.6 6.4 0.00 0.00 0.00 90 1013.3
20260505030056 12 190 1.6 3.2 0.00 0.00 0.00 90 1013.1
20260505024543 12 0 0.0 6.4 0.00 0.00 0.00 91 1013.0
20260505023044 12 182 1.6 8.0 0.00 0.00 0.00 90 1012.9
20260505021550 12 171 1.6 4.8 0.00 0.00 0.00 90 1012.8
20260505020050 12 160 1.6 6.4 0.00 0.00 0.00 90 1012.8
20260505014546 13 169 1.6 6.4 0.00 0.00 0.00 89 1012.7
20260505013046 13 157 3.2 6.4 0.00 0.00 0.00 88 1012.8
20260505011544 13 205 3.2 6.4 0.00 0.00 0.00 87 1012.9
20260505010103 13 173 3.2 9.7 0.00 0.00 0.00 87 1013.0
20260505004539 13 150 1.6 8.0 0.00 0.00 0.00 86 1013.0
20260505003049 14 190 3.2 6.4 0.00 0.00 0.00 86 1013.1
20260505001543 14 218 3.2 11.3 0.00 0.00 0.00 86 1013.3
20260505000051 14 197 3.2 8.0 0.00 0.00 0.00 85 1013.5
20260504234541 14 175 3.2 8.0 0.00 0.00 0.00 84 1013.6
20260504233051 15 279 3.2 11.3 0.00 0.00 0.00 84 1013.6
20260504231538 14 155 3.2 11.3 0.00 0.00 0.00 86 1013.6
20260504230104 14 193 3.2 11.3 0.00 0.00 0.00 86 1013.7
20260504224558 14 161 3.2 11.3 0.00 0.00 0.00 85 1013.8